Lancaster, OH

11:12 AM EDT on September 15, 2019 (GMT -0400)
Fairfield County

Weather History for KLHQ - August, 2019

Change the Weather History Date:

Monday, August 19, 2019

  Actual Average Record
Temperature  
Mean Temperature 76 °F -  
Max Temperature 88 °F 83 °F 98 °F (1955)
Min Temperature 64 °F 59 °F 43 °F (1943)
Cooling Degree Days 10    
Growing Degree Days 26 (Base 50)    
Moisture  
Dew Point 68 °F    
Average Humidity 76    
Maximum Humidity 96    
Minimum Humidity 57    
Precipitation  
Precipitation 0.00 in - - ()
Sea Level Pressure  
Sea Level Pressure 30.02 in    
Wind  
Wind Speed 5 mph (NW)    
Max Wind Speed 17 mph    
Max Gust Speed 30 mph    
Visibility 10 miles    
Events Thunderstorm    
Averages and records for this station are not official NWS values.
T = Trace of Precipitation, MM = Missing Value Source: NWS Daily Summary

Daily Weather History Graph

Daily Weather History Graph

Search for Another Location

Airport or City:

Astronomy

Aug. 19, 2019 Rise Set
Actual Time 6:46 AM EDT 8:21 PM EDT
Civil Twilight 6:17 AM EDT 8:50 PM EDT
Nautical Twilight 5:43 AM EDT 9:24 PM EDT
Astronomical Twilight 5:06 AM EDT 10:00 PM EDT
Moon 10:42 PM EDT (8/19) 10:25 AM EDT (8/19)
Length of Visible Light 14h 32m
Length of Day
13h 35m
Waning Gibbous, 85% of the Moon is Illuminated
Aug 19
Waning Gibbous
Aug 23
Last Quarter
Aug 30
New
Sep 5
First Quarter
Sep 14
Full

Hourly Weather History & Observations

Time (EDT) Temp. Heat Index Dew Point Humidity Pressure Visibility Wind Dir Wind Speed Gust Speed Precip Events Conditions
12:15 AM 80.1 °F 82.9 °F 69.1 °F 69% 29.96 in 10.0 mi SW 4.6 mph - N/A Thunderstorm Mostly Cloudy
12:41 AM 73.0 °F - 66.0 °F 79% 30.01 in 10.0 mi NNW 17.3 mph 29.9 mph N/A   Mostly Cloudy
12:53 AM 72.0 °F - 66.0 °F 81% 29.99 in 10.0 mi NNW 12.7 mph 26.5 mph N/A   Scattered Clouds
1:53 AM 69.1 °F - 64.0 °F 84% 30.00 in 10.0 mi NE 4.6 mph - N/A   Partly Cloudy
2:53 AM 68.0 °F - 63.0 °F 84% 29.98 in 10.0 mi Variable 3.5 mph - 0.00 in   Scattered Clouds
3:53 AM 66.9 °F - 64.0 °F 90% 29.98 in 10.0 mi Calm Calm - N/A   Clear
4:53 AM 66.0 °F - 63.0 °F 90% 29.98 in 10.0 mi Calm Calm - N/A   Clear
5:53 AM 64.0 °F - 63.0 °F 96% 29.99 in 10.0 mi Calm Calm - N/A   Clear
6:53 AM 64.0 °F - 62.1 °F 93% 30.01 in 10.0 mi Calm Calm - N/A   Clear
7:53 AM 66.0 °F - 64.0 °F 93% 30.03 in 10.0 mi Calm Calm - N/A   Clear
8:53 AM 72.0 °F - 64.9 °F 78% 30.04 in 10.0 mi South 3.5 mph - N/A   Clear
9:53 AM 77.0 °F - 66.0 °F 69% 30.06 in 10.0 mi Variable 5.8 mph - N/A   Clear
10:53 AM 80.1 °F 82.3 °F 66.9 °F 64% 30.07 in 10.0 mi Variable 3.5 mph - N/A   Mostly Cloudy
11:53 AM 82.0 °F 84.9 °F 68.0 °F 62% 30.07 in 10.0 mi SSW 5.8 mph - N/A   Clear
12:53 PM 84.0 °F 87.8 °F 69.1 °F 61% 30.06 in 10.0 mi Variable 5.8 mph - N/A   Clear
1:53 PM 84.9 °F 88.8 °F 69.1 °F 59% 30.06 in 10.0 mi SSW 6.9 mph - N/A   Mostly Cloudy
2:53 PM 86.0 °F 90.7 °F 70.0 °F 59% 30.05 in 10.0 mi West 6.9 mph - N/A   Mostly Cloudy
3:53 PM 87.1 °F 92.0 °F 70.0 °F 57% 30.03 in 10.0 mi Variable 4.6 mph - N/A   Partly Cloudy
4:53 PM 87.1 °F 92.0 °F 70.0 °F 57% 30.02 in 10.0 mi NNE 3.5 mph - N/A   Mostly Cloudy
5:53 PM 87.1 °F 92.0 °F 70.0 °F 57% 30.01 in 10.0 mi East 3.5 mph - N/A   Partly Cloudy
6:53 PM 86.0 °F 92.2 °F 72.0 °F 63% 30.00 in 10.0 mi Calm Calm - N/A   Partly Cloudy
7:53 PM 82.0 °F 87.4 °F 73.0 °F 74% 30.01 in 10.0 mi Calm Calm - N/A   Clear
8:53 PM 75.0 °F - 71.1 °F 87% 30.02 in 10.0 mi Calm Calm - N/A   Clear
9:53 PM 75.0 °F - 71.1 °F 87% 30.04 in 10.0 mi Calm Calm - N/A   Clear
10:53 PM 73.0 °F - 70.0 °F 90% 30.05 in 10.0 mi Calm Calm - N/A   Clear
11:53 PM 72.0 °F - 70.0 °F 93% 30.05 in 9.0 mi North 3.5 mph - N/A   Clear